Time,TemperatureF,DewpointF,PressureIn,WindDirection,WindDirectionDegrees,WindSpeedMPH,WindSpeedGustMPH,Humidity,HourlyPrecipIn,Conditions,Clouds,dailyrainin,SolarRadiationWatts/m^2,SoftwareType,DateUTC
2013-09-04 00:02:00,55.0,53.0,-100.00,West,260,7.0,11.0,94,0.00,,,0.04,0.000000,,2013-09-04 08:02:00,
2013-09-04 00:12:00,55.0,53.0,-100.00,West,260,7.0,11.0,94,0.00,,,0.04,0.000000,,2013-09-04 08:12:00,
2013-09-04 00:22:00,55.0,53.0,-100.00,West,260,7.0,11.0,94,0.00,,,0.04,0.000000,,2013-09-04 08:22:00,
2013-09-04 00:52:00,53.0,50.0,-100.00,WNW,298,6.0,13.0,89,0.00,,,0.04,0.000000,,2013-09-04 08:52:00,
2013-09-04 01:01:00,53.0,50.0,-100.00,WNW,298,6.0,13.0,89,0.00,,,0.04,0.000000,,2013-09-04 09:01:00,
2013-09-04 01:11:00,53.0,50.0,-100.00,WNW,298,6.0,13.0,89,0.00,,,0.04,0.000000,,2013-09-04 09:11:00,
2013-09-04 01:21:00,53.0,50.0,-100.00,WNW,298,6.0,13.0,89,0.00,,,0.04,0.000000,,2013-09-04 09:21:00,
2013-09-04 01:53:00,52.0,52.0,-100.00,West,273,4.0,9.0,100,0.00,,,0.04,0.000000,,2013-09-04 09:53:00,
2013-09-04 02:03:00,52.0,52.0,-100.00,West,273,4.0,9.0,100,0.00,,,0.04,0.000000,,2013-09-04 10:03:00,
2013-09-04 02:12:00,52.0,52.0,-100.00,West,273,4.0,9.0,100,0.00,,,0.04,0.000000,,2013-09-04 10:12:00,
2013-09-04 02:23:00,52.0,52.0,-100.00,West,273,4.0,9.0,100,0.00,,,0.04,0.000000,,2013-09-04 10:23:00,
2013-09-04 02:52:00,51.0,51.0,-100.00,NE,35,2.0,11.0,100,0.00,,,0.04,0.000000,,2013-09-04 10:52:00,
2013-09-04 03:02:00,51.0,51.0,-100.00,NE,35,2.0,11.0,100,0.00,,,0.04,0.000000,,2013-09-04 11:02:00,
2013-09-04 03:12:00,51.0,51.0,-100.00,NE,35,2.0,11.0,100,0.00,,,0.04,0.000000,,2013-09-04 11:12:00,
2013-09-04 03:22:00,51.0,51.0,-100.00,NE,35,2.0,11.0,100,0.00,,,0.04,0.000000,,2013-09-04 11:22:00,
2013-09-04 03:52:00,45.0,45.0,-100.00,ESE,121,2.0,5.0,100,0.00,,,0.04,0.000000,,2013-09-04 11:52:00,
2013-09-04 04:01:00,45.0,45.0,-100.00,ESE,121,2.0,5.0,100,0.00,,,0.04,0.000000,,2013-09-04 12:01:00,
2013-09-04 04:11:00,45.0,45.0,-100.00,ESE,121,2.0,5.0,100,0.00,,,0.04,0.000000,,2013-09-04 12:11:00,
2013-09-04 04:21:00,45.0,45.0,-100.00,ESE,121,2.0,5.0,100,0.00,,,0.04,0.000000,,2013-09-04 12:21:00,
2013-09-04 04:52:00,45.0,45.0,-100.00,NNE,33,2.0,6.0,100,0.00,,,0.04,0.000000,,2013-09-04 12:52:00,
2013-09-04 05:01:00,45.0,45.0,-100.00,NNE,33,2.0,6.0,100,0.00,,,0.04,0.000000,,2013-09-04 13:01:00,
2013-09-04 05:11:00,45.0,45.0,-100.00,NNE,33,2.0,6.0,100,0.00,,,0.04,0.000000,,2013-09-04 13:11:00,
2013-09-04 05:21:00,45.0,45.0,-100.00,NNE,33,2.0,6.0,100,0.00,,,0.04,0.000000,,2013-09-04 13:21:00,
2013-09-04 05:52:00,40.0,40.0,-100.00,SE,135,3.0,5.0,100,0.00,,,0.04,0.000000,,2013-09-04 13:52:00,
2013-09-04 06:01:00,40.0,40.0,-100.00,SE,135,3.0,5.0,100,0.00,,,0.04,0.000000,,2013-09-04 14:01:00,
2013-09-04 06:11:00,40.0,40.0,-100.00,SE,135,3.0,5.0,100,0.00,,,0.04,0.000000,,2013-09-04 14:11:00,
2013-09-04 06:21:00,40.0,40.0,-100.00,SE,135,3.0,5.0,100,0.00,,,0.04,0.000000,,2013-09-04 14:21:00,
2013-09-04 06:52:00,38.0,38.0,-100.00,ESE,104,3.0,5.0,100,0.00,,,0.04,1.000000,,2013-09-04 14:52:00,
2013-09-04 07:02:00,38.0,38.0,-100.00,ESE,104,3.0,5.0,100,0.00,,,0.04,1.000000,,2013-09-04 15:02:00,
2013-09-04 07:12:00,38.0,38.0,-100.00,ESE,104,3.0,5.0,100,0.00,,,0.04,1.000000,,2013-09-04 15:12:00,
2013-09-04 07:22:00,38.0,38.0,-100.00,ESE,104,3.0,5.0,100,0.00,,,0.04,1.000000,,2013-09-04 15:22:00,
2013-09-04 08:12:00,35.0,35.0,-100.00,NNW,339,2.0,4.0,100,0.00,,,0.04,13.000000,,2013-09-04 16:12:00,
2013-09-04 08:53:00,44.0,44.0,-100.00,NE,37,3.0,5.0,100,-99.99,,,0.04,50.000000,,2013-09-04 16:53:00,
2013-09-04 09:03:00,44.0,44.0,-100.00,NE,37,3.0,5.0,100,-99.99,,,0.04,50.000000,,2013-09-04 17:03:00,
2013-09-04 09:13:00,44.0,44.0,-100.00,NE,37,3.0,5.0,100,-99.99,,,0.04,50.000000,,2013-09-04 17:13:00,
2013-09-04 09:22:00,44.0,44.0,-100.00,NE,37,3.0,5.0,100,-99.99,,,0.04,50.000000,,2013-09-04 17:22:00,
2013-09-04 09:53:00,45.0,45.0,-100.00,ENE,77,3.0,6.0,100,0.00,,,0.04,44.000000,,2013-09-04 17:53:00,
2013-09-04 10:02:00,45.0,45.0,-100.00,ENE,77,3.0,6.0,100,0.00,,,0.04,44.000000,,2013-09-04 18:02:00,
2013-09-04 10:12:00,45.0,45.0,-100.00,ENE,77,3.0,6.0,100,0.00,,,0.04,44.000000,,2013-09-04 18:12:00,
2013-09-04 10:21:00,45.0,45.0,-100.00,ENE,77,3.0,6.0,100,0.00,,,0.04,44.000000,,2013-09-04 18:21:00,
2013-09-04 10:52:00,47.0,47.0,-100.00,NNE,33,4.0,7.0,100,0.01,,,0.05,30.000000,,2013-09-04 18:52:00,
2013-09-04 11:02:00,47.0,47.0,-100.00,NNE,33,4.0,7.0,100,0.01,,,0.05,30.000000,,2013-09-04 19:02:00,
2013-09-04 11:11:00,47.0,47.0,-100.00,NNE,33,4.0,7.0,100,0.01,,,0.05,30.000000,,2013-09-04 19:11:00,
2013-09-04 11:22:00,47.0,47.0,-100.00,NNE,33,4.0,7.0,100,0.01,,,0.05,30.000000,,2013-09-04 19:22:00,
2013-09-04 11:52:00,49.0,49.0,-100.00,NE,38,3.0,8.0,100,0.01,,,0.06,50.000000,,2013-09-04 19:52:00,
2013-09-04 12:02:00,49.0,49.0,-100.00,NE,38,3.0,8.0,100,0.01,,,0.06,50.000000,,2013-09-04 20:02:00,
2013-09-04 12:11:00,49.0,49.0,-100.00,NE,38,3.0,8.0,100,0.01,,,0.06,50.000000,,2013-09-04 20:11:00,
2013-09-04 12:22:00,49.0,49.0,-100.00,NE,38,3.0,8.0,100,0.01,,,0.06,50.000000,,2013-09-04 20:22:00,
2013-09-04 12:53:00,55.0,54.0,-100.00,SSW,205,4.0,8.0,97,0.00,,,0.06,178.000000,,2013-09-04 20:53:00,
2013-09-04 13:01:00,55.0,54.0,-100.00,SSW,205,4.0,8.0,97,0.00,,,0.06,178.000000,,2013-09-04 21:01:00,
2013-09-04 13:11:00,55.0,54.0,-100.00,SSW,205,4.0,8.0,97,0.00,,,0.06,178.000000,,2013-09-04 21:11:00,
2013-09-04 13:22:00,55.0,54.0,-100.00,SSW,205,4.0,8.0,97,0.00,,,0.06,178.000000,,2013-09-04 21:22:00,
2013-09-04 13:54:00,54.0,54.0,-100.00,NW,313,6.0,9.0,100,0.00,,,0.06,145.000000,,2013-09-04 21:54:00,
2013-09-04 14:04:00,54.0,54.0,-100.00,NW,313,6.0,9.0,100,0.00,,,0.06,145.000000,,2013-09-04 22:04:00,
2013-09-04 14:14:00,54.0,54.0,-100.00,NW,313,6.0,9.0,100,0.00,,,0.06,145.000000,,2013-09-04 22:14:00,
2013-09-04 14:23:00,54.0,54.0,-100.00,NW,313,6.0,9.0,100,0.00,,,0.06,145.000000,,2013-09-04 22:23:00,
2013-09-04 14:54:00,59.0,56.0,-100.00,North,349,3.0,7.0,89,0.00,,,0.06,326.000000,,2013-09-04 22:54:00,
2013-09-04 15:03:00,59.0,56.0,-100.00,North,349,3.0,7.0,89,0.00,,,0.06,326.000000,,2013-09-04 23:03:00,
2013-09-04 15:13:00,59.0,56.0,-100.00,North,349,3.0,7.0,89,0.00,,,0.06,326.000000,,2013-09-04 23:13:00,
2013-09-04 15:22:00,59.0,56.0,-100.00,North,349,3.0,7.0,89,0.00,,,0.06,326.000000,,2013-09-04 23:22:00,
2013-09-04 15:52:00,61.0,56.0,-100.00,East,93,2.0,7.0,84,0.00,,,0.06,304.000000,,2013-09-04 23:52:00,
2013-09-04 16:01:00,61.0,56.0,-100.00,East,93,2.0,7.0,84,0.00,,,0.06,304.000000,,2013-09-05 00:01:00,
2013-09-04 16:11:00,61.0,56.0,-100.00,East,93,2.0,7.0,84,0.00,,,0.06,304.000000,,2013-09-05 00:11:00,
2013-09-04 16:22:00,61.0,56.0,-100.00,East,93,2.0,7.0,84,0.00,,,0.06,304.000000,,2013-09-05 00:22:00,
2013-09-04 16:52:00,60.0,48.0,-100.00,WSW,244,7.0,14.0,65,0.00,,,0.06,204.000000,,2013-09-05 00:52:00,
2013-09-04 17:01:00,60.0,48.0,-100.00,WSW,244,7.0,14.0,65,0.00,,,0.06,204.000000,,2013-09-05 01:01:00,
2013-09-04 17:11:00,60.0,48.0,-100.00,WSW,244,7.0,14.0,65,0.00,,,0.06,204.000000,,2013-09-05 01:11:00,
2013-09-04 17:21:00,60.0,48.0,-100.00,WSW,244,7.0,14.0,65,0.00,,,0.06,204.000000,,2013-09-05 01:21:00,
2013-09-04 17:52:00,60.0,48.0,-100.00,West,262,12.0,17.0,64,0.00,,,0.06,217.000000,,2013-09-05 01:52:00,
2013-09-04 18:02:00,60.0,48.0,-100.00,West,262,12.0,17.0,64,0.00,,,0.06,217.000000,,2013-09-05 02:02:00,
2013-09-04 18:11:00,60.0,48.0,-100.00,West,262,12.0,17.0,64,0.00,,,0.06,217.000000,,2013-09-05 02:11:00,
2013-09-04 18:21:00,60.0,48.0,-100.00,West,262,12.0,17.0,64,0.00,,,0.06,217.000000,,2013-09-05 02:21:00,
2013-09-04 19:11:00,58.0,45.0,-100.00,WSW,252,7.0,17.0,63,0.00,,,0.06,220.000000,,2013-09-05 03:11:00,
2013-09-04 19:22:00,58.0,45.0,-100.00,WSW,252,7.0,17.0,63,0.00,,,0.06,220.000000,,2013-09-05 03:22:00,
2013-09-04 19:54:00,59.0,49.0,-100.00,West,279,7.0,13.0,70,0.00,,,0.06,178.000000,,2013-09-05 03:54:00,
2013-09-04 20:04:00,59.0,49.0,-100.00,West,279,7.0,13.0,70,0.00,,,0.06,178.000000,,2013-09-05 04:04:00,
2013-09-04 20:13:00,59.0,49.0,-100.00,West,279,7.0,13.0,70,0.00,,,0.06,178.000000,,2013-09-05 04:13:00,
2013-09-04 20:23:00,59.0,49.0,-100.00,West,279,7.0,13.0,70,0.00,,,0.06,178.000000,,2013-09-05 04:23:00,
2013-09-04 20:53:00,57.0,48.0,-100.00,NW,325,4.0,10.0,73,0.00,,,0.06,81.000000,,2013-09-05 04:53:00,
2013-09-04 21:03:00,57.0,48.0,-100.00,NW,325,4.0,10.0,73,0.00,,,0.06,81.000000,,2013-09-05 05:03:00,
2013-09-04 21:12:00,57.0,48.0,-100.00,NW,325,4.0,10.0,73,0.00,,,0.06,81.000000,,2013-09-05 05:12:00,
2013-09-04 21:23:00,57.0,48.0,-100.00,NW,325,4.0,10.0,73,0.00,,,0.06,81.000000,,2013-09-05 05:23:00,
2013-09-04 21:52:00,49.0,48.0,-100.00,NW,316,0.0,6.0,96,0.00,,,0.03,6.000000,,2013-09-05 05:52:00,
2013-09-04 22:02:00,49.0,48.0,-100.00,NW,316,0.0,6.0,96,0.00,,,0.03,6.000000,,2013-09-05 06:02:00,
2013-09-04 22:12:00,49.0,48.0,-100.00,NW,316,0.0,6.0,96,0.00,,,0.03,6.000000,,2013-09-05 06:12:00,
2013-09-04 22:21:00,49.0,48.0,-100.00,NW,316,0.0,6.0,96,0.00,,,0.03,6.000000,,2013-09-05 06:21:00,
2013-09-04 22:52:00,43.0,43.0,-100.00,ESE,102,3.0,4.0,100,0.00,,,0.02,0.000000,,2013-09-05 06:52:00,
2013-09-04 23:01:00,43.0,43.0,-100.00,ESE,102,3.0,4.0,100,0.00,,,0.02,0.000000,,2013-09-05 07:01:00,
2013-09-04 23:12:00,43.0,43.0,-100.00,ESE,102,3.0,4.0,100,0.00,,,0.02,0.000000,,2013-09-05 07:12:00,
2013-09-04 23:22:00,43.0,43.0,-100.00,ESE,102,3.0,4.0,100,0.00,,,0.02,0.000000,,2013-09-05 07:22:00,
2013-09-04 23:52:00,39.0,39.0,-100.00,ENE,72,2.0,4.0,100,0.00,,,0.02,0.000000,,2013-09-05 07:52:00,